User: anonymous   Login
Location: Unspecified
(0.0000°N, 0.0000°E)
Time: 03:15:36
(UTC+00:00)
Language:

SEEDS - Orbit

View from above orbital plane
View from above orbital plane
View from above satellite
View from above satellite

Ground track
Ground track

The orbit data is extracted from the following two-line orbital elements,

1 32791U 08021J   20185.70727800 +.00000134 +00000-0 +18870-4 0  9996
2 32791 097.5407 179.1401 0014630 052.9301 307.3253 14.91065406660802
Epoch (UTC): 03 July 2020 16:58:28
Eccentricity: 0.0014630
inclination: 97.5407°
perigee height: 584 km
apogee height: 605 km
right ascension of ascending node: 179.1401°
argument of perigee: 52.9301°
revolutions per day: 14.91065406
mean anomaly at epoch: 307.3253°
orbit number at epoch: 66080

The dashed part of the orbit path shows where the satellite is in the earth's shadow,  

DLR